Flag for Canada Weather past 2 weeks in Whitby, Ontario, Canada

Now
28 °F

Overcast.


Feels Like: 28 °F
Forecast: 26 / 34 °F
Wind: No wind

Location: Toronto Buttonville

Current Time: Dec 20, 2014 at 11:28:20 PM

Latest Report: Dec 20, 2014 at 11:00 PM


Visibility: 15 mi

Pressure: 30.30 "Hg

Humidity: 80%

Dew point: 23 °F

Location of WhitbyLocation

Historic Weather in Whitby — Graph

°F

Whitby temperature yesterday

Maximum temperature yesterday: 28 °F (at 12:00 PM)
Minimum temperature yesterday: 19 °F (at 7:00 AM)
Average temperature yesterday: 25 °F

Past Weeks' High & Low Weather Summary

 TemperatureHumidityPressure
High39 °F (Dec 6, 1:00 PM)100% (Dec 9, 8:00 AM)30.81 "Hg (Dec 9, 8:00 AM)
Low16 °F (Dec 20, 8:00 AM)40% (Dec 7, 2:00 PM)29.74 "Hg (Dec 16, 2:00 PM)
Average31 °F82%30.13 "Hg
* Reported Dec 5 10:00 PM — Dec 20 10:00 PM, Whitby, Weather by CustomWeather, © 2014

Note: Actual official high and low records may vary slightly from our data, if they occured in-between our weather recording intervals... More about our weather records

Advertising

Whitby weather history for previous 24 hours

 ConditionsComfort  
Time TempWeatherWind HumidityBarometerVisibility
10:00 PM
Dec 20
27 °FOvercast.No wind86%30.30 "Hg15 mi
9:00 PM27 °FOvercast.No wind80%30.31 "Hg15 mi
8:00 PM27 °FPassing clouds.No wind80%30.31 "Hg15 mi
7:00 PM27 °FPassing clouds.2 mph80%30.31 "Hg15 mi
6:00 PM27 °FPassing clouds.3 mph80%30.29 "Hg15 mi
5:00 PM28 °FPassing clouds.3 mph74%30.29 "Hg15 mi
3:00 PM32 °FScattered clouds.No wind51%30.27 "Hg15 mi
2:00 PM32 °FPassing clouds.No wind55%30.27 "Hg15 mi
1:00 PM32 °FPassing clouds.5 mph51%30.28 "Hg15 mi
12:00 PM28 °FPassing clouds.2 mph64%30.30 "Hg15 mi
11:00 AM28 °FPassing clouds.2 mph64%30.32 "Hg15 mi
10:00 AM25 °FPassing clouds.2 mph74%30.33 "Hg15 mi
9:00 AM21 °FScattered clouds.2 mph86%30.33 "Hg15 mi
8:00 AM16 °FPassing clouds.2 mph93%30.32 "Hg15 mi
7:00 AM18 °FPassing clouds.3 mph86%30.33 "Hg15 mi
6:49 AMN/APassing clouds.2 mphN/AN/A15 mi
6:00 AM18 °FPassing clouds.No wind86%30.32 "Hg15 mi
5:00 AM18 °FPassing clouds.No wind93%30.29 "Hg15 mi
4:00 AM18 °FClear.No wind93%30.28 "Hg15 mi
3:00 AM19 °FClear.3 mph86%30.27 "Hg15 mi
2:00 AM21 °FPassing clouds.5 mph80%30.27 "Hg15 mi
1:00 AM21 °FPassing clouds.5 mph86%30.28 "Hg15 mi
12:00 AM23 °FPassing clouds.5 mph80%30.29 "Hg15 mi
11:00 PM
Dec 19
25 °FPassing clouds.5 mph80%30.30 "Hg15 mi
Weather by CustomWeather, © 2014

See weather overviewHow to use our weather pages